THORAD DELTA 1 DEB, 8161

Orbit data source: Space-Track

THORAD DELTA 1 DEB, 8161 is space debris in LEO originally from a launch on Fri, 15 Nov 1974 UTC launched from the Air Force Western Test Range (AFWTR). Debris objects in space refer to the collection of defunct objects orbiting the Earth. Examples of debris include non-operational satellites, rocket bodies, and fragments generated from explosions, collisions, or faulty payload assembly.

Loading next visibility...
Identifier
8161, 1974-089AB
Orbit
LEO
Country
Flag of USUS
Related business
Manufacturer
Unknown
Mission
Spacecraft
Bus & Motor
Unknown
Mass
Unknown
Launch date (UTC)
1974-11-15 (51 years ago)
Launch vehicle
Unknown
Launch site
Air Force Western Test Range (AFWTR)
Object type
Payload
Rocket body
Debris
Shape & HBR
Unknown shape, 0.1 m
Radar Cross Section
Small (<0.1 m²)

Expand to show TLE details & history
Last TLE update: 3 days ago

TLE from 3 days ago
0 THORAD DELTA 1 DEB
1  8161U 74089AB  25308.63968887  .00000371  00000-0  41356-2 0  9999
2  8161 101.2311   9.9872 0376086 194.0469 323.4834 11.99455261560769
Epoch: 2025-11-04T15:21Z
TLE epoch observation values (Epoch: 2025-11-04T15:21:09.118Z)
Latitude
24.64743°
Longitude
-79.22303°
Altitude
1,446.478 km
Speed
7.246 km/s
True Right ascension
13h 00m 45s
True Declination
24° 31' 44"
Sunlit
Object was in daylight at epoch
Visualization orbit readout
Latitude
Unknown
Longitude
Unknown
Altitude
Unknown
Speed
Unknown
Apparent Right ascension
Unknown
Apparent Declination
Unknown
Sunlit
N/A
Visualization observer readout
Local Sidereal Time
01:54:38
Azimuth
Unknown
Elevation
Unknown
Doppler factor
Unknown
Orbital elements
Apogee altitude
1,983.968 km
Perigee altitude
1,377.791 km
Semi-major axis
8,059.017 km
Eccentricity
0.03761
Inclination
101.2311°
RAAN
9.9872°
Arg. of periapsis
194.0469°
True anomaly
320.81937°
Mean anomaly
323.4834°
Eccentric anomaly
322.16156°
Mean motion
2.99999 °/min
Orbital period
120 mins
BSTAR
0.0041356
Loading maneuver chart data...
Computing Atmospheric mass density...

Documentation

Showing up to 5 results
|